Wind_Speed
40 40 41 41 41 41 41 42 42 43 44 44 43 43 43 42 43 42 41 41 42 43 43 44 44 42 42 42 42 40 37 35 32 31 29 26 25 24
40 40 40 41 42 42 42 42 42 43 44 45 45 45 44 43 43 43 42 40 41 43 42 44 44 43 42 42 42 41 38 35 32 31 29 27 25 24
40 40 40 41 42 42 43 43 43 43 43 44 45 45 45 44 42 43 43 41 41 42 42 43 43 43 42 41 41 41 39 36 33 31 30 28 26 24
39 39 40 41 41 42 43 44 44 44 44 45 45 45 45 45 43 43 44 44 43 43 43 43 43 43 43 42 41 41 40 37 34 32 31 29 27 25
39 39 40 40 41 42 43 44 45 45 45 46 46 46 46 46 44 44 44 44 45 45 43 44 44 43 43 43 43 42 40 38 36 35 32 30 28 27
38 39 40 41 41 42 43 44 45 46 46 47 47 47 47 47 46 45 44 43 44 46 44 44 44 44 44 44 44 43 42 40 38 36 33 31 29 27
37 38 39 41 42 43 44 45 45 46 47 48 48 48 48 48 48 46 45 44 43 45 45 45 44 45 46 45 45 44 43 42 39 38 35 33 30 28
35 36 37 38 40 42 43 45 47 47 48 49 50 50 50 49 50 49 47 46 45 44 46 46 45 44 47 47 46 46 44 43 41 39 37 34 32 29
34 35 36 36 38 40 42 43 44 46 48 49 50 51 51 51 51 50 51 48 47 46 46 47 47 47 47 48 48 48 46 44 43 40 38 36 34 31
34 34 35 36 37 38 39 41 42 44 47 49 50 51 51 52 53 51 51 50 49 48 47 47 47 47 47 48 48 47 46 45 44 42 39 38 36 33
33 33 34 35 36 37 38 38 39 41 44 47 49 51 52 52 54 53 53 52 49 48 48 47 47 47 47 48 49 48 47 46 45 43 41 39 37 35
30 31 31 32 34 34 35 37 37 39 42 45 47 50 52 53 54 55 53 52 51 50 48 47 47 48 48 48 49 48 47 47 46 44 42 40 38 36
27 28 29 29 30 31 33 35 36 38 40 42 45 47 50 53 54 55 54 52 52 52 49 48 47 48 48 48 48 48 47 47 47 45 44 42 40 37
26 26 27 27 28 29 30 33 35 37 39 41 43 45 48 51 53 54 54 53 51 53 52 50 48 47 49 49 48 48 48 47 47 46 45 43 41 39
25 25 24 24 24 25 28 31 34 36 38 40 42 44 46 49 50 52 54 55 52 52 51 51 49 49 50 51 50 49 48 48 47 46 45 44 42 40
23 22 20 19 19 21 23 26 29 33 36 39 41 43 45 47 49 50 51 54 53 51 51 50 50 49 48 50 51 49 48 48 48 47 46 44 43 41
22 19 17 16 15 15 17 20 23 28 32 35 39 42 44 46 47 49 49 50 53 52 51 51 50 50 50 50 49 49 47 47 46 46 46 45 43 42
19 16 14 12 10 10 12 15 19 22 27 31 35 39 42 44 46 46 47 47 50 51 49 48 49 49 48 49 50 49 47 46 45 45 45 45 43 41
17 14 12 9 8 8 9 12 15 19 23 29 32 35 38 41 43 44 44 45 46 48 48 47 47 48 48 48 50 50 47 46 45 44 44 44 43 41
16 13 10 8 7 7 7 9 12 16 20 25 30 32 35 37 40 42 42 42 43 44 46 46 46 46 46 47 47 47 46 45 45 44 43 43 43 41
15 12 9 7 6 6 6 8 11 15 19 23 27 29 32 34 35 38 40 41 42 42 44 45 45 45 45 45 45 45 45 45 45 45 43 42 42 41
13 11 8 6 5 5 6 8 11 14 19 22 25 28 29 31 33 35 37 38 39 40 42 42 43 43 43 44 44 44 44 44 44 43 42 41 40 40
12 9 7 5 4 4 5 8 10 13 17 21 24 26 29 31 33 33 35 36 38 39 40 41 41 42 42 43 43 43 43 43 43 43 42 40 40 40
Wind_Direction
271 268 265 263 260 257 255 251 248 246 245 243 242 241 239 237 236 235 234 233 232 231 230 229 226 226 225 226 223 222 222 223 224 224 225 226 228 230
271 268 265 262 259 256 254 251 248 245 244 243 241 240 238 236 236 234 233 232 230 229 228 226 225 225 226 225 223 221 220 220 221 221 222 225 225 228
271 268 265 262 259 256 253 250 248 246 243 242 240 239 237 236 235 233 232 231 229 228 226 225 224 224 223 222 220 219 218 218 219 219 220 222 223 225
271 267 264 262 259 256 253 250 248 246 243 241 240 238 236 235 234 233 232 230 230 228 225 223 223 222 221 220 219 217 217 217 218 219 219 220 221 223
271 267 264 262 259 256 253 250 248 246 243 241 239 237 235 233 232 231 231 230 229 227 225 224 221 221 219 219 217 216 216 216 217 217 218 219 220 221
272 268 265 262 259 256 253 251 248 246 243 241 238 236 234 232 231 231 229 227 228 226 224 223 221 220 218 217 216 214 214 216 216 216 217 218 218 219
274 271 267 264 260 256 253 251 248 245 242 240 238 235 233 231 230 229 228 227 226 224 222 222 220 220 217 216 214 212 214 214 215 215 216 216 216 217
277 274 270 266 262 258 255 251 248 244 241 238 236 234 231 229 228 228 228 227 225 224 222 221 221 221 216 214 214 212 213 214 214 214 215 215 216 217
279 276 273 269 264 259 255 251 248 244 240 237 234 232 230 227 227 227 227 227 226 225 224 221 221 220 217 214 214 212 212 213 213 214 214 215 217 218
283 278 274 270 265 259 255 250 246 242 239 235 233 231 228 226 225 225 225 225 225 226 223 222 220 219 218 215 213 211 212 212 213 213 214 215 217 219
285 280 275 270 264 258 253 248 244 240 236 233 231 229 227 225 223 223 223 222 223 224 224 223 220 218 217 215 213 211 212 213 213 213 215 216 218 220
289 284 278 271 265 259 252 247 242 238 235 232 230 228 226 225 223 222 222 222 222 221 222 222 220 217 217 214 212 211 212 213 213 214 216 218 220 221
293 288 282 274 267 259 252 245 240 236 234 231 228 226 225 224 224 223 222 221 221 220 219 219 220 219 216 214 213 212 213 212 213 215 217 219 220 221
299 293 287 279 269 259 251 243 239 236 232 230 227 224 223 222 223 223 221 220 221 221 220 220 219 218 216 214 213 213 214 214 215 216 217 218 220 222
306 300 292 283 271 259 250 244 240 236 231 228 226 223 221 220 221 221 222 220 219 220 221 220 218 218 218 215 214 214 216 216 216 217 218 219 221 223
311 307 297 288 274 260 250 244 238 233 229 226 224 221 219 218 219 219 220 219 218 218 220 218 217 218 218 217 215 214 215 216 218 219 219 220 223 224
314 310 303 293 278 260 248 240 234 229 225 222 220 218 217 217 217 216 217 218 217 218 219 219 219 218 218 216 214 214 216 216 217 219 220 221 222 224
317 313 308 299 282 260 244 234 229 225 221 217 215 214 214 214 215 215 216 216 215 216 217 218 219 217 217 217 215 215 216 216 217 218 220 221 223 224
321 315 307 300 286 266 248 235 225 219 216 211 209 209 209 211 213 212 213 214 215 217 217 219 218 217 216 216 215 215 215 215 216 218 220 221 222 223
327 319 307 295 284 270 249 233 221 211 207 205 203 204 205 207 208 209 210 212 213 216 216 217 217 217 218 216 215 216 215 215 217 219 221 221 222 224
332 327 312 295 278 261 238 219 206 200 198 198 197 198 201 203 204 206 208 209 211 212 214 214 215 217 217 217 216 216 215 215 217 220 222 223 225 226
333 329 318 299 273 251 231 214 201 194 193 193 192 195 198 200 201 203 205 206 207 210 211 213 215 216 216 217 217 217 216 216 218 220 222 224 226 227
334 329 321 305 271 231 216 199 191 188 188 190 191 192 194 195 197 200 203 204 206 207 207 209 211 212 215 215 216 216 217 217 219 220 222 224 226 228
Height
5748 5747 5747 5747 5748 5749 5751 5753 5756 5758 5761 5764 5767 5771 5775 5779 5783 5787 5791 5796 5800 5806 5811 5816 5822 5827 5833 5838 5844 5850 5856 5861 5866 5870 5874 5877 5881 5884
5735 5735 5735 5735 5736 5737 5739 5741 5743 5746 5749 5753 5756 5760 5764 5769 5773 5778 5782 5787 5791 5796 5802 5807 5813 5819 5825 5831 5837 5843 5849 5854 5859 5864 5868 5872 5876 5879
5723 5722 5722 5722 5723 5725 5726 5729 5731 5734 5738 5741 5745 5749 5754 5758 5763 5768 5773 5777 5782 5787 5793 5799 5805 5811 5817 5823 5829 5836 5842 5848 5853 5858 5863 5867 5871 5874
5710 5709 5709 5709 5710 5712 5713 5716 5719 5722 5726 5730 5733 5738 5743 5748 5753 5758 5763 5768 5773 5778 5784 5790 5796 5802 5808 5815 5822 5828 5835 5841 5847 5852 5857 5861 5865 5869
5697 5696 5696 5696 5697 5698 5700 5703 5706 5709 5713 5718 5722 5727 5732 5737 5743 5748 5754 5759 5764 5769 5775 5781 5787 5794 5800 5807 5814 5821 5828 5834 5840 5846 5851 5855 5860 5864
5684 5683 5683 5683 5684 5685 5687 5689 5692 5696 5700 5705 5710 5715 5720 5726 5732 5738 5744 5749 5754 5760 5766 5772 5778 5785 5792 5799 5806 5813 5820 5827 5833 5839 5845 5850 5854 5858
5670 5669 5669 5669 5669 5671 5673 5675 5678 5682 5686 5691 5697 5703 5709 5715 5721 5728 5734 5740 5745 5750 5757 5763 5770 5776 5783 5790 5797 5805 5812 5820 5826 5833 5838 5844 5848 5853
5657 5656 5655 5655 5655 5656 5658 5661 5664 5668 5673 5678 5684 5690 5696 5703 5710 5716 5723 5730 5736 5742 5748 5754 5761 5768 5775 5782 5789 5797 5805 5812 5819 5826 5832 5837 5842 5847
5644 5643 5641 5641 5641 5642 5643 5645 5649 5653 5658 5664 5670 5677 5684 5691 5698 5705 5712 5718 5726 5732 5738 5745 5752 5759 5766 5773 5781 5789 5797 5804 5811 5818 5825 5831 5836 5841
5632 5630 5628 5627 5627 5627 5629 5631 5635 5639 5644 5650 5657 5664 5670 5677 5686 5693 5700 5707 5715 5722 5729 5736 5743 5750 5758 5765 5773 5780 5789 5797 5804 5811 5818 5824 5830 5835
5620 5617 5615 5614 5613 5614 5616 5618 5622 5625 5630 5637 5643 5650 5657 5665 5674 5682 5689 5697 5705 5712 5720 5727 5734 5741 5749 5756 5764 5772 5781 5789 5796 5804 5811 5817 5823 5828
5608 5605 5603 5601 5601 5601 5603 5606 5609 5613 5618 5624 5631 5638 5646 5654 5662 5671 5679 5687 5694 5702 5710 5718 5725 5733 5740 5748 5756 5764 5772 5781 5788 5796 5803 5810 5816 5822
5598 5595 5592 5590 5589 5589 5591 5594 5597 5601 5606 5612 5619 5626 5634 5643 5651 5659 5668 5677 5685 5693 5701 5708 5716 5724 5732 5740 5748 5756 5765 5773 5780 5788 5795 5802 5808 5815
5589 5585 5582 5579 5578 5578 5580 5583 5586 5590 5595 5601 5608 5615 5624 5632 5640 5649 5658 5667 5675 5683 5691 5699 5707 5716 5724 5732 5740 5748 5756 5764 5772 5780 5787 5794 5800 5807
5581 5576 5572 5569 5568 5568 5569 5572 5575 5580 5585 5591 5598 5605 5613 5621 5630 5639 5647 5656 5665 5673 5681 5690 5699 5706 5715 5723 5731 5740 5748 5756 5764 5772 5779 5786 5793 5799
5574 5569 5565 5562 5560 5559 5560 5562 5565 5570 5574 5580 5587 5595 5603 5611 5620 5629 5637 5646 5656 5664 5672 5681 5690 5698 5706 5714 5723 5731 5740 5748 5756 5764 5771 5778 5785 5791
5568 5563 5559 5556 5554 5553 5553 5555 5557 5560 5565 5571 5577 5585 5594 5602 5611 5620 5629 5637 5647 5655 5664 5673 5681 5689 5697 5706 5714 5723 5732 5740 5748 5756 5763 5770 5777 5783
5563 5558 5555 5552 5550 5549 5549 5550 5552 5555 5558 5563 5570 5577 5586 5594 5603 5612 5621 5629 5638 5647 5656 5664 5673 5681 5689 5698 5707 5715 5724 5732 5740 5747 5754 5762 5768 5774
5559 5555 5552 5550 5548 5547 5546 5547 5548 5550 5553 5558 5564 5572 5579 5588 5596 5605 5613 5622 5631 5639 5648 5656 5665 5674 5682 5691 5699 5708 5716 5724 5732 5739 5746 5753 5760 5766
5556 5552 5550 5548 5546 5545 5545 5545 5545 5547 5550 5554 5560 5567 5574 5582 5590 5598 5607 5615 5624 5632 5641 5649 5658 5666 5675 5684 5693 5701 5708 5716 5724 5732 5738 5745 5752 5758
5553 5550 5547 5546 5545 5544 5543 5544 5544 5546 5549 5553 5558 5564 5571 5578 5585 5593 5601 5609 5617 5626 5634 5643 5651 5659 5667 5676 5685 5693 5701 5708 5716 5723 5730 5737 5743 5749
5551 5548 5546 5544 5543 5543 5543 5543 5544 5546 5548 5552 5557 5562 5568 5575 5582 5589 5596 5604 5612 5620 5628 5636 5643 5652 5661 5670 5678 5686 5693 5701 5708 5715 5722 5729 5735 5741
5550 5547 5545 5543 5542 5542 5542 5543 5544 5546 5548 5552 5556 5561 5566 5572 5579 5585 5592 5599 5607 5614 5622 5630 5638 5646 5654 5663 5670 5678 5686 5694 5701 5708 5715 5721 5727 5733